{"data":{"norad_id":53411,"intl_designator":"2022-097Z","name":"STARLINK-4497","alt_names":[],"object_type":"PAYLOAD","status":"ACTIVE","operator":null,"country":"US","launch_date":"2022-08-10","launch_site_code":"AFETR","launch_vehicle":null,"mission":null,"orbit_class":"UNKNOWN","rcs_meters":null,"size_class":null,"mass_kg":null,"dimensions":null,"purposes":["comms"],"wikipedia_slug":null,"has_3d_model":false,"image_url":null,"decayed_at":null,"tle_current":{"epoch":"2026-09-20T04:00:03.000096Z","epoch_age_seconds":104257,"freshness":"FRESH","line1":"1 53411U 22097Z   26263.16670139  .00050366  00000+0  23969-2 0  9996","line2":"2 53411  53.1589 319.7474 0001630 143.9622  34.3189 15.18697927  5737","mean_motion":15.18697927,"eccentricity":0.000163,"inclination_deg":53.1589,"raan_deg":319.7474,"arg_perigee_deg":143.9622,"mean_anomaly_deg":34.3189,"bstar":0.0023969,"rev_number":573,"period_min":94.818065818035,"perigee_km":508.65202661004,"apogee_km":510.89748584257,"semimajor_km":6887.9117562263,"source":"CELESTRAK","updated_at":"2026-09-20T09:00:40.227536Z"}}}